sat.trackr.live / text

‹ back to catalog

ONEWEB-0341

NORAD 49207 · 2021-083X

PAYLOAD ACTIVE UNKNOWN

§ Identity

Operator
Country
UK
Launch date
2021-09-14
Launch site
TYMSC
Launch vehicle
Mass (kg)
RCS (m²)

Purposes: comms

External: N2YO · Heavens-Above · Gunter

§ Orbital elements

Epoch: 2026-05-25T01:46:17.312736Z

Period
109.20 min
Inclination
87.9163°
Eccentricity
0.0001713
Mean motion
13.18685722 rev/d
Perigee alt
1,188.4 km
Apogee alt
1,191.0 km
Semi-major
7,567.9 km
B*
2.5263e-5
RAAN
340.0594°
Arg perigee
104.5639°
Mean anomaly
255.5683°
Rev number
22,694

§ Raw data

ONEWEB-03411 49207U 21083X   26145.07381149  .00000023  00000+0  25263-4 0  99932 49207  87.9163 340.0594 0001713 104.5639 255.5683 13.18685722226943

JSON: /api/v1/satellites/49207 · /tle

For live sub-satellite position, see the globe view (requires WebGL).

§ Visibility from observer

Set your observer location to see the next 7 days of passes ≥ 10°. The values pass through the URL so the page stays shareable.

No JS? Fill the form by hand. The geolocation button needs JavaScript.